Norris Lake Weather Center

Moon Phase Calendar



Norris Lake Water Level
Online Cameras

 


      

Current Conditions in Maynardville
5/18/2024 5:38:27 AM

65°F
Feels Like 66
Clouds
Humidity
99%
Pressure
29.85"
Wind
1 mph (S)
Dew Point
65°F
UV Index
0/10 (Low)
Visibility
6 mi

Hourly Forecast

Date & Time Sat, May 18
5:00 AM
Sat, May 18
6:00 AM
Sat, May 18
7:00 AM
Sat, May 18
8:00 AM
Sat, May 18
9:00 AM
Sat, May 18
10:00 AM
Sat, May 18
11:00 AM
Sat, May 18
12:00 PM
Sat, May 18
1:00 PM
Sat, May 18
2:00 PM
Sat, May 18
3:00 PM
Sat, May 18
4:00 PM
Sat, May 18
5:00 PM
Sat, May 18
6:00 PM
Sat, May 18
7:00 PM
Sat, May 18
8:00 PM
Sat, May 18
9:00 PM
Sat, May 18
10:00 PM
Sat, May 18
11:00 PM
Sun, May 19
12:00 AM
Sun, May 19
1:00 AM
Sun, May 19
2:00 AM
Sun, May 19
3:00 AM
Sun, May 19
4:00 AM
Sun, May 19
5:00 AM
Sun, May 19
6:00 AM
Sun, May 19
7:00 AM
Sun, May 19
8:00 AM
Sun, May 19
9:00 AM
Sun, May 19
10:00 AM
Sun, May 19
11:00 AM
Sun, May 19
12:00 PM
Sun, May 19
1:00 PM
Sun, May 19
2:00 PM
Sun, May 19
3:00 PM
Sun, May 19
4:00 PM
Sun, May 19
5:00 PM
Sun, May 19
6:00 PM
Sun, May 19
7:00 PM
Sun, May 19
8:00 PM
Sun, May 19
9:00 PM
Sun, May 19
10:00 PM
Sun, May 19
11:00 PM
Mon, May 20
12:00 AM
Mon, May 20
1:00 AM
Mon, May 20
2:00 AM
Mon, May 20
3:00 AM
Mon, May 20
4:00 AM
Condition
Rain

Clouds

Clouds

Clouds

Clouds

Clouds

Clouds

Clouds

Rain

Rain

Clouds

Rain

Rain

Rain

Rain

Rain

Clouds

Rain

Rain

Clouds

Clouds

Clouds

Clouds

Clouds

Clouds

Clouds

Clouds

Clouds

Clear

Clear

Clear

Clear

Clear

Clear

Clouds

Clouds

Clouds

Clouds

Clouds

Clouds

Clouds

Clouds

Clouds

Clouds

Clouds

Clouds

Clear

Clear
Temperature 64°F65°F64°F64°F63°F64°F64°F65°F67°F72°F73°F72°F73°F71°F68°F65°F64°F63°F62°F62°F62°F61°F61°F60°F59°F58°F59°F62°F65°F70°F74°F78°F80°F82°F83°F83°F83°F82°F77°F72°F69°F66°F63°F61°F60°F59°F58°F57°F
Feels Like 65°F66°F65°F64°F64°F64°F65°F66°F68°F72°F73°F73°F74°F72°F69°F66°F64°F63°F62°F62°F62°F62°F61°F61°F60°F59°F59°F62°F65°F70°F74°F78°F80°F81°F82°F82°F81°F82°F78°F72°F68°F66°F63°F61°F60°F59°F58°F57°F
Cloudiness 100%100%100%100%100%100%100%100%100%100%100%100%100%100%100%100%100%100%100%100%100%100%93%96%99%91%73%61%1%2%1%0%1%1%37%40%30%21%21%34%56%39%26%19%15%13%0%0%
Visibility 6 mi6 mi6 mi6 mi6 mi6 mi6 mi6 mi6 mi6 mi6 mi6 mi4 mi6 mi5 mi6 mi6 mi6 mi6 mi6 mi6 mi6 mi6 mi6 mi6 mi6 mi6 mi6 mi6 mi6 mi6 mi6 mi6 mi6 mi6 mi6 mi6 mi6 mi6 mi6 mi6 mi6 mi6 mi6 mi6 mi6 mi6 mi6 mi
Precipitation 58%78%85%80%32%0%0%0%44%65%39%100%100%100%100%100%53%83%90%84%80%75%3%2%2%4%4%4%0%0%0%0%0%0%0%0%0%0%0%0%0%0%0%0%0%0%0%0%
Humidity 99%99%99%99%98%97%96%94%91%76%69%77%79%89%91%93%94%95%96%96%97%97%97%97%97%98%98%96%90%78%60%49%43%38%35%34%33%43%58%69%72%78%87%91%92%92%92%92%
Dew Point 64°F65°F64°F63°F63°F63°F63°F64°F64°F64°F63°F65°F66°F68°F65°F63°F62°F62°F61°F61°F61°F60°F60°F59°F59°F58°F58°F61°F62°F62°F60°F58°F56°F55°F53°F52°F52°F57°F62°F61°F59°F59°F59°F58°F57°F56°F56°F55°F
Pressure 29.85"29.85"29.85"29.85"29.88"29.88"29.91"29.88"29.88"29.83"29.83"29.83"29.8"29.8"29.83"29.83"29.85"29.85"29.85"29.85"29.85"29.85"29.88"29.88"29.88"29.91"29.91"29.94"29.94"29.97"29.94"29.94"29.91"29.91"29.88"29.88"29.88"29.88"29.88"29.91"29.94"29.94"29.97"29.97"29.97"29.97"29.97"29.97"
Wind Speed 1 mph1 mph1.4 mph0.7 mph1.7 mph1.4 mph1 mph1.5 mph3.8 mph4.1 mph5.2 mph5.6 mph4.6 mph4.1 mph3.4 mph4.3 mph2.7 mph2.8 mph1.8 mph1.4 mph1.5 mph1.5 mph2.5 mph2.5 mph2.8 mph2.6 mph3.1 mph2.4 mph2.6 mph3.2 mph5.3 mph6.8 mph7.7 mph7.8 mph8.2 mph8.6 mph8.2 mph6.2 mph5 mph4.6 mph5.8 mph5.7 mph4.1 mph3.2 mph3 mph2.9 mph2 mph0.9 mph
Wind
Direction
173°
S
179°
S
159°
SSE
97°
E
97°
E
126°
SE
151°
SSE
139°
SE
217°
SW
222°
SW
226°
SW
221°
SW
238°
WSW
293°
WNW
306°
NW
320°
NW
304°
NW
270°
W
273°
W
317°
NW
310°
NW
360°
N
341°
NNW
351°
N
332°
NNW
339°
NNW
334°
NNW
344°
NNW

N
16°
NNE
25°
NNE
26°
NNE
25°
NNE
21°
NNE
19°
NNE
21°
NNE
17°
NNE

N
357°
N
346°
NNW
338°
NNW
344°
NNW
350°
N
354°
N
355°
N
357°
N
360°
N
356°
N

Daily Forecast

Date High Low Precip. Humidity
Today
May 18

Rain
73 °F
61 °F
100%
91%
Sunday
May 19

Clear
83 °F
58 °F
84%
43%
Monday
May 20

Clear
83 °F
56 °F
0%
44%
Tuesday
May 21

Clouds
84 °F
58 °F
0%
43%
Wednesday
May 22

Clouds
83 °F
61 °F
0%
47%
Thursday
May 23

Rain
81 °F
63 °F
100%
54%
Friday
May 24

Rain
65 °F
60 °F
100%
98%
Saturday
May 25

Rain
77 °F
57 °F
100%
71%
Sunday
May 26

Rain
84 °F
63 °F
100%
45%
Monday
May 27

Rain
76 °F
62 °F
100%
84%
Tuesday
May 28

Rain
72 °F
59 °F
100%
95%
Wednesday
May 29

Clouds
68 °F
52 °F
0%
40%
Thursday
May 30

Rain
72 °F
47 °F
34%
36%
Friday
May 31

Clear
73 °F
47 °F
0%
40%
Saturday
Jun 1

Clear
77 °F
47 °F
0%
36%
Sunday
Jun 2

Clouds
79 °F
53 °F
0%
39%

Temperature 8-14 Day Outlook



Precipitation 8-14 Day Outlook




Quick Links
Norris Lake News
Norris Lake Photos
Norris Lake Videos




About Us
Contact Us
Site Map
Search Site
Advertise With Us
   
www.NorrisLakeNews.com
THE NORRIS LAKE WEBSITE

Copyright 2024, Lakes Online
Privacy    |    Legal